[[{"header":{"parameterUnit":"m.s-1","parameterCategory":1,"la1":30.2991,"la2":30.254,"lo1":-89.0895,"lo2":-89.0444,"dy":0.0017,"dx":0.0017,"nx":28,"ny":28,"refTime":"2024-09-02T09:00:00:Z","depth":0,"parameterNumber":2,"parameterNumberName":"U-component_of_WINDS"},"data":[0,0,0,0,0,0,0,0,0,0,0,0,0,0,0,0,0,0,0,0,0,0,0,0,0,0,0,0,0,0,0,0,0,0,0,0,0,0,0,0,0,0,0,0,0,0,0,0,0,0,0,0,0,0,0,0,0,0,-2.2692,-2.2692,0,-2.2706,-2.2706,-2.2707,-2.2643,-2.2641,-2.2639,-2.2638,-2.2655,-2.2657,-2.2659,0,0,0,0,0,0,0,0,0,0,0,0,0,-2.2615,-2.2616,-2.2692,-2.2692,-2.2692,-2.2706,-2.2706,-2.2707,-2.2643,-2.2641,-2.2639,-2.2637,-2.2654,-2.2657,-2.2659,0,0,0,0,0,0,0,0,0,0,0,0,0,-2.2641,-2.2617,-2.2692,-2.2662,-2.266,-2.2706,-2.2706,-2.2707,-2.2644,-2.2641,-2.2638,-2.2636,-2.2653,-2.2656,-2.266,-2.2736,0,0,-2.267,-2.2671,0,0,0,0,0,0,0,0,-2.2639,-2.2644,-2.2667,-2.2664,-2.2662,-2.267,-2.2685,-2.2717,-2.2645,-2.265,-2.2637,-2.2634,-2.2662,-2.2665,-2.2674,-2.2737,-2.2738,-2.267,-2.2672,-2.2673,-2.2674,0,0,0,0,0,0,0,-2.2637,-2.2643,-2.2698,-2.2667,-2.2664,-2.265,-2.2651,-2.2691,-2.2672,-2.2649,-2.2645,-2.2647,-2.266,-2.2671,-2.2673,-2.2738,-2.267,-2.2673,-2.2675,-2.2676,-2.2867,-2.287,0,0,0,0,0,0,-2.2639,-2.2641,-2.2697,-2.2698,-2.2643,-2.2654,-2.2654,-2.267,-2.2671,-2.2668,-2.265,-2.2644,-2.2666,-2.267,-2.2674,-2.2764,-2.2673,-2.2677,-2.2678,-2.2864,-2.2868,-2.2871,0,0,0,0,0,0,-2.2638,-2.2645,-2.2697,-2.2669,-2.2674,-2.2658,-2.2676,-2.2672,-2.2682,-2.2671,-2.2668,-2.2663,-2.2664,-2.2669,-2.2721,-2.2764,-2.2678,-2.2681,-2.286,-2.2865,-2.2869,-2.2945,0,0,0,0,0,0,-2.2636,-2.2644,-2.2672,-2.267,-2.2676,-2.2743,-2.2679,-2.2674,-2.2687,-2.268,-2.2683,-2.2681,-2.2662,-2.2717,-2.2725,-2.2767,-2.2684,-2.2856,-2.2863,-2.2868,-2.2939,-2.2952,-2.2963,0,0,0,0,0,-2.2633,-2.2693,-2.2674,-2.2681,-2.271,-2.2745,-2.2749,-2.2726,-2.2691,-2.2719,-2.2713,-2.2681,-2.2758,-2.2723,-2.2731,-2.2775,-2.2854,-2.2861,-2.2868,-2.2933,-2.2949,-2.2963,0,0,0,0,0,0,-2.27,-2.2692,-2.267,-2.2731,-2.2739,-2.2734,-2.2769,-2.2743,-2.2762,-2.2755,-2.2726,-2.2728,-2.2785,-2.2785,-2.2746,-2.285,-2.28,-2.2809,-2.2847,-2.2862,-2.2874,-2.2872,-2.2686,0,0,0,0,0,-2.2722,-2.2751,-2.2742,-2.2796,-2.2802,-2.2785,-2.28,-2.2781,-2.2789,-2.2793,-2.279,-2.28,-2.2827,-2.2845,-2.2869,-2.2939,-2.294,-2.2974,-2.2986,-2.2996,-2.3004,-2.3043,-2.3058,-2.2894,-2.2894,-2.2894,0,0,-2.2768,-2.2767,-2.2786,-2.281,-2.2814,-2.2846,-2.2788,-2.2823,-2.2847,-2.2798,-2.2847,-2.2846,-2.2856,-2.2918,-2.2945,-2.292,-2.305,-2.3005,-2.3013,-2.3015,-2.3052,-2.3067,-2.3081,-2.2899,-2.2898,-2.2897,0,0,-2.2866,-2.2868,-2.2914,-2.292,-2.2927,-2.2916,-2.2928,-2.2928,-2.2925,-2.2974,-2.2938,-2.2967,-2.3013,-2.3022,-2.3032,-2.3138,-2.311,-2.3147,-2.321,-2.3248,-2.3261,-2.3273,-2.3311,-2.3325,-2.3155,-2.3156,-2.3156,0,-2.2922,-2.2966,-2.2941,-2.2979,-2.2991,-2.2949,-2.2997,-2.3004,-2.302,-2.303,-2.3002,-2.306,-2.3064,-2.3128,-2.3154,-2.3164,-2.3177,-2.3146,-2.3261,-2.3273,-2.3283,-2.3319,-2.3334,-2.316,-2.316,-2.3159,-2.3159,0,-2.3035,-2.3067,-2.3103,-2.3119,-2.3136,-2.3179,-2.3161,-2.3182,-2.3164,-2.3156,-2.3208,-2.3211,-2.3236,-2.325,-2.3232,-2.3313,-2.3297,-2.3266,-2.3215,-2.3303,-2.3337,-2.3351,-2.3167,-2.3165,-2.3164,-2.3162,0,0,-2.3173,-2.3176,-2.319,-2.3198,-2.3204,-2.3229,-2.3272,-2.3296,-2.3314,-2.3328,-2.3363,-2.3405,-2.3377,-2.3389,-2.3372,-2.3406,-2.3491,-2.3371,-2.3371,-2.3393,-2.3582,-2.3605,-2.3621,-2.3473,-2.3476,-2.3478,-2.3581,0,-2.327,-2.334,-2.332,-2.3391,-2.3422,-2.3384,-2.3421,-2.3431,-2.3426,-2.3453,-2.3448,-2.3478,-2.3438,-2.3446,-2.3478,-2.3474,-2.3529,-2.3467,-2.3507,-2.3509,-2.3504,-2.3639,-2.3662,-2.3759,-2.3594,-2.3596,-2.3598,0,-2.3391,-2.3409,-2.3483,-2.3487,-2.3499,-2.3532,-2.3554,-2.3579,-2.359,-2.3585,-2.36,-2.3578,-2.3622,-2.3572,-2.3633,-2.3591,-2.3607,-2.3608,-2.3612,-2.3613,-2.3558,-2.3644,-2.379,-2.3804,-2.3618,-2.3617,-2.3615,0,-2.3484,-2.3528,-2.3578,-2.3586,-2.3591,-2.3616,-2.362,-2.3628,-2.3645,-2.3665,-2.3675,-2.37,-2.3714,-2.3735,-2.3721,-2.3686,-2.3785,-2.3733,-2.3782,-2.3783,-2.3803,-2.3802,-2.3953,-2.3815,-2.3815,-2.3815,-2.3814,0,-2.3594,-2.3641,-2.362,-2.3651,-2.3704,-2.3682,-2.3735,-2.3735,-2.3743,-2.3775,-2.3745,-2.3776,-2.3755,-2.3785,-2.3775,-2.3827,-2.3834,-2.3832,-2.3828,-2.3834,-2.3834,-2.3843,-2.3835,-2.3818,-2.3818,-2.3817,-2.3816,0,-2.3706,-2.3694,-2.3747,-2.3749,-2.3751,-2.3789,-2.3792,-2.3821,-2.3816,-2.3857,-2.3865,-2.3857,-2.389,-2.3879,-2.3915,-2.3908,-2.3975,-2.3964,-2.3971,-2.3968,-2.4017,-2.4013,-2.4179,-2.42,-2.4049,-2.4051,-2.4052,0,-2.3776,-2.3811,-2.3818,-2.3836,-2.3842,-2.3873,-2.389,-2.3871,-2.389,-2.3908,-2.3936,-2.3967,-2.399,-2.4047,-2.4045,-2.4073,-2.4061,-2.4118,-2.4065,-2.4071,-2.4062,-2.406,-2.4064,-2.4128,-2.413,-2.4131,-2.4132,0,-2.3901,-2.3895,-2.3919,-2.3943,-2.3965,-2.3983,-2.3998,-2.4016,-2.3999,-2.4022,-2.4056,-2.4075,-2.4112,-2.4144,-2.417,-2.4176,-2.4152,-2.4149,-2.4162,-2.4167,-2.417,-2.417,-2.3999,-2.4145,-2.4144,-2.4143,-2.4142,-2.4141,-2.3994,-2.4025,-2.4034,-2.4064,-2.4074,-2.409,-2.4119,-2.4117,-2.4145,-2.4173,-2.4162,-2.4201,-2.4215,-2.4247,-2.4257,-2.4289,-2.4267,-2.4286,-2.429,-2.4295,-2.4301,-2.4167,-2.4294,-2.4293,-2.4293,-2.4293,-2.4292,0,-2.4118,-2.4123,-2.4151,-2.4174,-2.4198,-2.4174,-2.4191,-2.4213,-2.4247,-2.4261,-2.4286,-2.4326,-2.4358,-2.436,-2.439,-2.4415,-2.4405,-2.4424,-2.4421,-2.4423,-2.4319,-2.4304,-2.4432,-2.4432,-2.4432,-2.4431,-2.4431,-2.4431,-2.4185,-2.4236,-2.4231,-2.4287,-2.4292,-2.433,-2.4342,-2.4357,-2.4368,-2.4415,-2.4441,-2.4442,-2.4452,-2.4483,-2.4511,-2.4511,-2.4524,-2.4547,-2.4542,-2.4444,-2.443,-2.4417,-2.4404,-2.455,-2.455,-2.4644,-2.4645,-2.4646]},{"header":{"parameterUnit":"m.s-1","parameterCategory":1,"la1":30.2991,"la2":30.254,"lo1":-89.0895,"lo2":-89.0444,"dy":0.0017,"dx":0.0017,"nx":28,"ny":28,"refTime":"2024-09-02T09:00:00:Z","depth":0,"parameterNumber":3,"parameterNumberName":"V-component_of_WINDS"},"data":[0,0,0,0,0,0,0,0,0,0,0,0,0,0,0,0,0,0,0,0,0,0,0,0,0,0,0,0,0,0,0,0,0,0,0,0,0,0,0,0,0,0,0,0,0,0,0,0,0,0,0,0,0,0,0,0,0,0,2.9259,2.926,0,2.9325,2.9326,2.9327,2.9424,2.9425,2.9427,2.9429,2.9491,2.9491,2.9491,0,0,0,0,0,0,0,0,0,0,0,0,0,2.9212,2.9213,2.9259,2.926,2.9261,2.9325,2.9326,2.9327,2.9423,2.9425,2.9427,2.9429,2.9491,2.9491,2.9491,0,0,0,0,0,0,0,0,0,0,0,0,0,2.9251,2.9213,2.9259,2.9317,2.9323,2.9325,2.9326,2.9327,2.9423,2.9425,2.9428,2.943,2.9491,2.9491,2.9491,2.9441,0,0,2.9492,2.9492,0,0,0,0,0,0,0,0,2.9248,2.9252,2.9307,2.9313,2.9319,2.9369,2.9333,2.9365,2.9422,2.9385,2.9429,2.9432,2.9448,2.9452,2.9459,2.9444,2.9447,2.9492,2.9492,2.9492,2.9492,0,0,0,0,0,0,0,2.9246,2.925,2.9285,2.9308,2.9315,2.9338,2.9346,2.9339,2.9401,2.9388,2.9395,2.9402,2.9452,2.9458,2.9461,2.9448,2.9492,2.9492,2.9492,2.9492,2.9396,2.9394,0,0,0,0,0,0,2.9235,2.9247,2.9283,2.9287,2.929,2.9337,2.9346,2.935,2.9402,2.9412,2.94,2.9406,2.9457,2.9461,2.9463,2.9408,2.9492,2.9492,2.9492,2.9399,2.9396,2.9393,0,0,0,0,0,0,2.9234,2.9237,2.9281,2.9269,2.9277,2.9335,2.9339,2.935,2.9357,2.9411,2.9422,2.9395,2.9459,2.9463,2.9447,2.9411,2.9492,2.9492,2.9402,2.9398,2.9394,2.9296,0,0,0,0,0,0,2.9232,2.9236,2.9218,2.9268,2.9277,2.9263,2.9337,2.935,2.9357,2.9367,2.9409,2.9419,2.9461,2.9446,2.9447,2.9413,2.9492,2.9405,2.94,2.9395,2.9303,2.929,2.9278,0,0,0,0,0,2.923,2.9187,2.9217,2.9221,2.9256,2.9261,2.9266,2.9317,2.9354,2.9336,2.9371,2.9417,2.9416,2.9443,2.9445,2.9411,2.9408,2.9402,2.9396,2.9308,2.9292,2.9278,0,0,0,0,0,0,2.9129,2.9195,2.9228,2.9201,2.9225,2.9277,2.9256,2.9298,2.9311,2.9319,2.9381,2.939,2.9365,2.9387,2.9416,2.9366,2.9419,2.9413,2.9352,2.9337,2.9325,2.9319,2.9493,0,0,0,0,0,2.9104,2.9104,2.9161,2.9131,2.9142,2.9197,2.9201,2.9239,2.9265,2.9275,2.9309,2.9332,2.9337,2.9338,2.9346,2.9308,2.9318,2.9285,2.9273,2.9262,2.9256,2.9237,2.9223,2.9373,2.9373,2.9373,0,0,2.9052,2.9088,2.9083,2.9112,2.9135,2.9132,2.9204,2.9198,2.9197,2.9274,2.9261,2.9286,2.9316,2.9288,2.9277,2.9305,2.9217,2.9255,2.9246,2.9245,2.9229,2.9215,2.9202,2.9369,2.937,2.9371,0,0,2.8954,2.8982,2.896,2.8983,2.9018,2.9055,2.905,2.9097,2.9117,2.9105,2.9163,2.9162,2.9169,2.9188,2.9198,2.911,2.9153,2.9111,2.9045,2.9026,2.9014,2.9004,2.8971,2.8959,2.9105,2.9104,2.9104,0,2.8884,2.8884,2.8943,2.8934,2.8945,2.9017,2.8995,2.9013,2.9048,2.9053,2.9085,2.9096,2.9121,2.9098,2.9077,2.9084,2.9078,2.9105,2.9011,2.9001,2.8993,2.8962,2.895,2.9099,2.91,2.91,2.9101,0,2.8795,2.8794,2.8772,2.8806,2.8815,2.8799,2.8855,2.8856,2.8894,2.8927,2.8914,2.8947,2.8963,2.8961,2.8996,2.8943,2.8959,2.9,2.9054,2.8972,2.8944,2.8933,2.9091,2.9093,2.9095,2.9096,0,0,2.8634,2.8703,2.8693,2.871,2.8755,2.8755,2.8742,2.876,2.8759,2.8781,2.8771,2.8777,2.8815,2.8827,2.8866,2.8849,2.8777,2.8892,2.8894,2.8868,2.8719,2.8686,2.8672,2.8806,2.8804,2.8803,2.8716,0,2.8544,2.8528,2.8582,2.8551,2.8551,2.8621,2.861,2.8636,2.8667,2.8671,2.8705,2.8708,2.8759,2.8766,2.8753,2.8788,2.8747,2.8795,2.8796,2.8795,2.8784,2.8658,2.8624,2.854,2.8706,2.8704,2.8703,0,2.8436,2.8455,2.8425,2.8473,2.8475,2.8464,2.8485,2.8488,2.8518,2.8542,2.8556,2.8603,2.8593,2.8647,2.8633,2.8665,2.8668,2.8685,2.8684,2.8684,2.8742,2.8653,2.8515,2.8501,2.8686,2.8688,2.8689,0,2.832,2.8338,2.8322,2.8335,2.839,2.8381,2.8403,2.8437,2.8444,2.8462,2.8467,2.8482,2.849,2.8501,2.8549,2.8584,2.8529,2.8588,2.8548,2.8546,2.8531,2.8531,2.8389,2.8536,2.8536,2.8537,2.8537,0,2.8213,2.8192,2.8271,2.8261,2.8239,2.8301,2.8277,2.8307,2.8336,2.8332,2.8394,2.8388,2.8454,2.8456,2.8494,2.8477,2.848,2.8498,2.8508,2.8491,2.8489,2.8493,2.8499,2.8533,2.8534,2.8535,2.8535,0,2.8078,2.8131,2.8119,2.8174,2.8187,2.8168,2.8214,2.8207,2.8243,2.8238,2.824,2.8296,2.8302,2.8352,2.8368,2.8394,2.8361,2.8383,2.835,2.8357,2.8314,2.8316,2.8168,2.8152,2.831,2.8309,2.8307,0,2.8006,2.7991,2.8045,2.8048,2.8069,2.8072,2.8081,2.8142,2.8147,2.8182,2.817,2.8181,2.8193,2.8198,2.8239,2.8252,2.8273,2.8221,2.8275,2.8259,2.8271,2.827,2.8269,2.8208,2.8206,2.8204,2.8203,0,2.7871,2.7898,2.7909,2.7929,2.7938,2.7956,2.7977,2.7976,2.8043,2.8046,2.8054,2.8063,2.8081,2.809,2.811,2.8132,2.8178,2.8186,2.8177,2.8159,2.8141,2.8149,2.8317,2.8188,2.819,2.8191,2.8192,2.8192,2.7764,2.7755,2.7792,2.7802,2.7825,2.7845,2.784,2.7878,2.7886,2.7906,2.7941,2.7943,2.7975,2.8007,2.8025,2.8026,2.8054,2.8041,2.8038,2.8033,2.8024,2.8142,2.803,2.8031,2.8031,2.8032,2.8032,0,2.7632,2.766,2.7669,2.7698,2.7706,2.7752,2.7778,2.7781,2.7783,2.7809,2.7821,2.7829,2.7839,2.7882,2.7896,2.7889,2.791,2.789,2.789,2.7894,2.7999,2.8005,2.7873,2.7873,2.7873,2.7873,2.7873,2.7873,2.7563,2.755,2.7582,2.758,2.7608,2.7612,2.7623,2.7641,2.7663,2.767,2.7679,2.7709,2.7741,2.7759,2.777,2.7782,2.7783,2.7756,2.7775,2.7872,2.7887,2.7901,2.7907,2.7756,2.7756,2.767,2.7669,2.7669]}]]